SWA3136 KMCO-KLAS

Flight info

Callsign SWA3136
Flight time N/A
Altitude 34000
Route OSPRY1 REMIS Y280 LEV ACT TXO DATME WOHCI DICEE TYEGR CHOWW4
Aircraft B38M/M-SADE2E3GHIJ4J7P2RWZ/LB1D1

Departure

Time 2026-05-07 19:47
Airport Orlando International Airport (KMCO)

Arrival

Time N/A
Airport Harry Reid International Airport (KLAS)
Time Latitude Longitude Altitude Speed Heading
2026-05-07 19:25 28.43584 -81.30378 97 ft 0 kts 136°
2026-05-07 19:37 28.43591 -81.30386 97 ft 4 kts 136°
2026-05-07 19:37 28.43611 -81.30407 96 ft 4 kts 136°
2026-05-07 19:37 28.43631 -81.30428 98 ft 4 kts 136°
2026-05-07 19:38 28.43639 -81.30436 97 ft 0 kts 136°
2026-05-07 19:41 28.43638 -81.30436 97 ft 0 kts 136°
2026-05-07 19:42 28.43633 -81.30425 99 ft 3 kts 114°
2026-05-07 19:42 28.43639 -81.30386 97 ft 8 kts 61°
2026-05-07 19:42 28.43692 -81.30306 97 ft 17 kts 50°
2026-05-07 19:42 28.43777 -81.30186 97 ft 21 kts 51°
2026-05-07 19:43 28.43828 -81.30035 98 ft 22 kts 96°
2026-05-07 19:43 28.43736 -81.29903 99 ft 23 kts 161°
2026-05-07 19:43 28.43594 -81.29888 98 ft 13 kts 179°
2026-05-07 19:43 28.43549 -81.29832 98 ft 11 kts 91°
2026-05-07 19:44 28.43551 -81.29740 97 ft 13 kts 88°
2026-05-07 19:44 28.43552 -81.29692 100 ft 0 kts 88°
2026-05-07 19:45 28.43552 -81.29691 100 ft 0 kts 88°
2026-05-07 19:45 28.43552 -81.29680 99 ft 3 kts 88°
2026-05-07 19:45 28.43551 -81.29634 101 ft 9 kts 99°
2026-05-07 19:46 28.43476 -81.29588 100 ft 18 kts 178°
2026-05-07 19:46 28.43435 -81.29587 101 ft 9 kts 179°
2026-05-07 19:46 28.43058 -81.29583 101 ft 97 kts 179°
2026-05-07 19:46 28.42120 -81.29576 100 ft 170 kts 179°
2026-05-07 19:47 28.40805 -81.29537 616 ft 196 kts 180°
2026-05-07 19:47 28.39511 -81.29710 1751 ft 192 kts 202°
2026-05-07 19:47 28.38401 -81.30656 2298 ft 214 kts 230°
2026-05-07 19:47 28.37362 -81.32028 2968 ft 233 kts 230°
2026-05-07 19:48 28.36341 -81.33384 4132 ft 230 kts 230°
2026-05-07 19:48 28.35467 -81.34937 5058 ft 237 kts 252°
2026-05-07 19:48 28.35145 -81.36801 6006 ft 248 kts 261°
2026-05-07 19:48 28.34883 -81.38807 6694 ft 265 kts 262°
2026-05-07 19:49 28.34636 -81.40896 7645 ft 268 kts 262°
2026-05-07 19:49 28.34396 -81.43000 8605 ft 272 kts 262°
2026-05-07 19:49 28.34160 -81.45145 9553 ft 276 kts 262°
2026-05-07 19:49 28.33936 -81.47273 10581 ft 275 kts 262°
2026-05-07 19:50 28.33699 -81.49507 11059 ft 294 kts 262°
2026-05-07 19:50 28.33448 -81.51887 11479 ft 314 kts 263°
2026-05-07 19:50 28.33183 -81.54404 12041 ft 326 kts 262°
2026-05-07 19:50 28.32913 -81.56967 12838 ft 328 kts 263°
2026-05-07 19:51 28.32642 -81.59554 13620 ft 332 kts 263°
2026-05-07 19:51 28.32366 -81.62169 14336 ft 335 kts 263°
2026-05-07 19:51 28.32089 -81.64802 15035 ft 338 kts 263°
2026-05-07 19:51 28.31808 -81.67465 15709 ft 341 kts 263°
2026-05-07 19:52 28.31523 -81.70145 16398 ft 343 kts 264°
2026-05-07 19:52 28.31237 -81.72840 17054 ft 346 kts 264°
2026-05-07 19:52 28.30949 -81.75560 17708 ft 349 kts 264°
2026-05-07 19:52 28.30656 -81.78304 18355 ft 351 kts 264°
2026-05-07 19:53 28.30361 -81.81064 18900 ft 354 kts 264°
2026-05-07 19:53 28.30063 -81.83848 19448 ft 356 kts 264°
2026-05-07 19:53 28.29763 -81.86645 19982 ft 359 kts 264°
2026-05-07 19:53 28.29423 -81.89457 20507 ft 362 kts 259°
2026-05-07 19:54 28.28863 -81.92245 21021 ft 364 kts 259°
2026-05-07 19:54 28.28323 -81.95000 21533 ft 367 kts 259°
2026-05-07 19:54 28.27777 -81.97831 22032 ft 369 kts 259°
2026-05-07 19:54 28.27231 -82.00691 22532 ft 371 kts 259°
2026-05-07 19:55 28.26686 -82.03559 23018 ft 374 kts 259°
2026-05-07 19:55 28.26136 -82.06455 23482 ft 377 kts 259°
2026-05-07 19:55 28.25582 -82.09369 23913 ft 379 kts 259°
2026-05-07 19:55 28.25033 -82.12256 24293 ft 381 kts 259°
2026-05-07 19:56 28.24472 -82.15204 24684 ft 383 kts 259°
2026-05-07 19:56 28.23908 -82.18162 25081 ft 385 kts 259°
2026-05-07 19:56 28.23340 -82.21135 25473 ft 387 kts 259°
2026-05-07 19:56 28.22769 -82.24123 25855 ft 389 kts 259°
2026-05-07 19:57 28.22194 -82.27130 26243 ft 391 kts 259°
2026-05-07 19:57 28.21614 -82.30156 26628 ft 393 kts 259°
2026-05-07 19:57 28.21033 -82.33185 27002 ft 395 kts 259°
2026-05-07 19:57 28.20445 -82.36242 27374 ft 397 kts 259°
2026-05-07 19:58 28.19855 -82.39311 27723 ft 399 kts 259°
2026-05-07 19:58 28.19262 -82.42389 28084 ft 401 kts 259°
2026-05-07 19:58 28.18665 -82.45484 28442 ft 403 kts 259°
2026-05-07 19:58 28.18063 -82.48604 28779 ft 405 kts 259°
2026-05-07 19:59 28.17458 -82.51732 29139 ft 407 kts 259°
2026-05-07 19:59 28.16850 -82.54875 29471 ft 409 kts 259°
2026-05-07 19:59 28.16238 -82.58032 29797 ft 412 kts 259°
2026-05-07 19:59 28.15621 -82.61209 30111 ft 414 kts 259°
2026-05-07 20:00 28.15003 -82.64391 30385 ft 415 kts 259°
2026-05-07 20:00 28.14380 -82.67592 30652 ft 417 kts 259°
2026-05-07 20:00 28.13751 -82.70818 30913 ft 419 kts 259°
2026-05-07 20:00 28.13122 -82.74044 31180 ft 421 kts 259°
2026-05-07 20:01 28.12488 -82.77286 31445 ft 423 kts 259°
2026-05-07 20:01 28.11850 -82.80549 31735 ft 424 kts 259°
2026-05-07 20:01 28.11213 -82.83806 32075 ft 424 kts 259°
2026-05-07 20:01 28.10575 -82.87058 32433 ft 423 kts 259°
2026-05-07 20:02 28.10162 -82.89214 32669 ft 422 kts 259°
2026-05-07 20:02 28.09348 -82.93556 33176 ft 421 kts 259°
2026-05-07 20:02 28.08945 -82.95702 33425 ft 420 kts 259°
2026-05-07 20:02 28.08334 -82.98938 33803 ft 419 kts 259°
2026-05-07 20:03 28.07726 -83.02164 34048 ft 420 kts 259°
2026-05-07 20:03 28.07116 -83.05389 34055 ft 417 kts 259°
2026-05-07 20:03 28.05902 -83.11795 34048 ft 416 kts 259°
2026-05-07 20:04 28.04685 -83.18197 34049 ft 416 kts 259°
2026-05-07 20:04 28.03466 -83.24597 34046 ft 416 kts 259°
2026-05-07 20:05 28.02244 -83.30993 34039 ft 416 kts 259°
2026-05-07 20:05 28.01019 -83.37391 34040 ft 416 kts 259°
2026-05-07 20:06 27.99999 -83.43823 34044 ft 414 kts 267°
2026-05-07 20:06 27.99617 -83.50338 34043 ft 415 kts 266°
2026-05-07 20:07 27.99240 -83.56807 34039 ft 415 kts 266°
2026-05-07 20:07 27.98861 -83.63317 34043 ft 415 kts 266°
2026-05-07 20:08 27.98479 -83.69819 34042 ft 415 kts 266°
2026-05-07 20:08 27.98094 -83.76334 34041 ft 415 kts 266°
2026-05-07 20:09 27.97706 -83.82840 34039 ft 415 kts 266°
2026-05-07 20:10 27.97119 -83.92599 34033 ft 414 kts 266°
2026-05-07 20:10 27.96723 -83.99104 34034 ft 414 kts 266°
2026-05-07 20:11 27.96325 -84.05601 34033 ft 414 kts 266°
2026-05-07 20:11 27.95924 -84.12104 34034 ft 414 kts 266°
2026-05-07 20:12 27.95520 -84.18600 34036 ft 414 kts 266°
2026-05-07 20:12 27.95112 -84.25105 34034 ft 414 kts 266°
2026-05-07 20:13 27.94701 -84.31607 34033 ft 414 kts 266°
2026-05-07 20:13 27.94287 -84.38105 34033 ft 415 kts 266°
2026-05-07 20:14 27.93870 -84.44615 34030 ft 415 kts 266°
2026-05-07 20:14 27.93450 -84.51113 34032 ft 415 kts 266°
2026-05-07 20:15 27.93027 -84.57618 34032 ft 415 kts 266°
2026-05-07 20:15 27.92600 -84.64127 34036 ft 415 kts 266°
2026-05-07 20:16 27.92171 -84.70632 34031 ft 415 kts 266°
2026-05-07 20:16 27.91741 -84.77097 34028 ft 415 kts 266°
2026-05-07 20:17 27.91303 -84.83644 34031 ft 415 kts 266°
2026-05-07 20:17 27.90867 -84.90108 34027 ft 415 kts 266°
2026-05-07 20:18 27.90425 -84.96614 34030 ft 415 kts 265°
2026-05-07 20:18 27.89977 -85.03158 34029 ft 415 kts 265°
2026-05-07 20:19 27.89533 -85.09619 34030 ft 415 kts 265°
2026-05-07 20:19 27.89082 -85.16130 34026 ft 415 kts 265°
2026-05-07 20:20 27.88630 -85.22634 34029 ft 415 kts 266°
2026-05-07 20:20 27.88729 -85.25884 34016 ft 415 kts 279°
2026-05-07 20:20 27.89525 -85.29026 34034 ft 417 kts 285°
2026-05-07 20:21 27.91316 -85.35281 34027 ft 419 kts 286°
2026-05-07 20:21 27.93178 -85.41519 34025 ft 419 kts 286°
2026-05-07 20:22 27.95057 -85.47748 34030 ft 419 kts 286°
2026-05-07 20:22 27.96937 -85.53981 34028 ft 418 kts 286°
2026-05-07 20:23 27.98813 -85.60215 34029 ft 418 kts 286°
2026-05-07 20:23 28.00685 -85.66444 34025 ft 418 kts 285°
2026-05-07 20:24 28.02557 -85.72683 34024 ft 418 kts 285°
2026-05-07 20:24 28.04422 -85.78913 34022 ft 418 kts 285°
2026-05-07 20:25 28.06274 -85.85108 34022 ft 418 kts 285°
2026-05-07 20:25 28.08134 -85.91342 34021 ft 418 kts 285°
2026-05-07 20:26 28.09992 -85.97582 34020 ft 418 kts 285°
2026-05-07 20:26 28.11847 -86.03826 34019 ft 418 kts 285°
2026-05-07 20:27 28.13699 -86.10069 34020 ft 418 kts 285°
2026-05-07 20:27 28.15549 -86.16317 34017 ft 418 kts 285°
2026-05-07 20:28 28.17393 -86.22557 34018 ft 418 kts 285°
2026-05-07 20:28 28.19236 -86.28805 34018 ft 418 kts 285°
2026-05-07 20:29 28.21074 -86.35046 34018 ft 417 kts 285°
2026-05-07 20:29 28.22910 -86.41295 34015 ft 417 kts 285°
2026-05-07 20:30 28.24739 -86.47529 34018 ft 417 kts 284°
2026-05-07 20:30 28.26565 -86.53769 34013 ft 417 kts 284°
2026-05-07 20:31 28.28389 -86.60010 34014 ft 416 kts 284°
2026-05-07 20:31 28.30207 -86.66238 34016 ft 416 kts 284°
2026-05-07 20:32 28.32028 -86.72467 34017 ft 416 kts 284°
2026-05-07 20:32 28.33841 -86.78652 34018 ft 415 kts 284°
2026-05-07 20:33 28.35659 -86.84866 34010 ft 415 kts 284°
2026-05-07 20:33 28.37473 -86.91078 34013 ft 414 kts 284°
2026-05-07 20:34 28.39282 -86.97288 34010 ft 414 kts 284°
2026-05-07 20:34 28.41088 -87.03494 34012 ft 413 kts 284°
2026-05-07 20:35 28.42886 -87.09688 34009 ft 413 kts 284°
2026-05-07 20:35 28.44684 -87.15889 34012 ft 413 kts 284°
2026-05-07 20:36 28.46475 -87.22081 34010 ft 412 kts 284°
2026-05-07 20:36 28.48263 -87.28275 34011 ft 412 kts 284°
2026-05-07 20:37 28.50046 -87.34465 34011 ft 412 kts 284°
2026-05-07 20:37 28.51825 -87.40648 34010 ft 412 kts 284°
2026-05-07 20:38 28.53599 -87.46831 34008 ft 411 kts 284°
2026-05-07 20:38 28.55371 -87.53015 34007 ft 411 kts 284°
2026-05-07 20:39 28.57137 -87.59190 34006 ft 411 kts 284°
2026-05-07 20:39 28.58900 -87.65369 34004 ft 410 kts 284°
2026-05-07 20:40 28.60660 -87.71545 34008 ft 410 kts 283°
2026-05-07 20:40 28.62404 -87.77680 34009 ft 410 kts 284°
2026-05-07 20:41 28.64155 -87.83850 34006 ft 410 kts 283°
2026-05-07 20:41 28.65903 -87.90022 34005 ft 409 kts 283°
2026-05-07 20:42 28.67646 -87.96188 34006 ft 409 kts 283°
2026-05-07 20:42 28.69388 -88.02359 33997 ft 409 kts 283°
2026-05-07 20:43 28.71125 -88.08527 33993 ft 409 kts 283°
2026-05-07 20:43 28.72859 -88.14701 33996 ft 409 kts 283°
2026-05-07 20:44 28.74589 -88.20869 33999 ft 409 kts 283°
2026-05-07 20:44 28.76317 -88.27044 33998 ft 409 kts 283°
2026-05-07 20:45 28.78045 -88.33229 33997 ft 409 kts 283°
2026-05-07 20:45 28.79767 -88.39407 33995 ft 409 kts 283°
2026-05-07 20:46 28.81490 -88.45599 33994 ft 409 kts 283°
2026-05-07 20:46 28.83208 -88.51783 33998 ft 409 kts 283°
2026-05-07 20:47 28.84926 -88.57981 33998 ft 410 kts 283°
2026-05-07 20:47 28.86641 -88.64180 34000 ft 410 kts 282°
2026-05-07 20:48 28.88303 -88.70390 33989 ft 407 kts 278°
2026-05-07 20:48 28.89606 -88.76684 33996 ft 408 kts 279°
2026-05-07 20:49 28.90945 -88.82972 33995 ft 408 kts 279°
2026-05-07 20:49 28.92288 -88.89265 33997 ft 408 kts 279°
2026-05-07 20:50 28.93628 -88.95553 33995 ft 408 kts 279°
2026-05-07 20:50 28.94955 -89.01797 33994 ft 407 kts 279°
2026-05-07 20:51 28.96288 -89.08082 33994 ft 407 kts 278°
2026-05-07 20:51 28.97402 -89.13348 33990 ft 407 kts 278°
2026-05-07 20:52 28.98942 -89.20647 33990 ft 407 kts 278°
2026-05-07 20:52 29.00052 -89.25917 33995 ft 407 kts 278°
2026-05-07 20:53 29.01584 -89.33217 33990 ft 407 kts 278°
2026-05-07 20:53 29.02680 -89.38447 33990 ft 407 kts 278°
2026-05-07 20:54 29.03993 -89.44731 33994 ft 407 kts 278°
2026-05-07 20:54 29.05302 -89.51010 33998 ft 407 kts 278°
2026-05-07 20:55 29.06610 -89.57295 33994 ft 406 kts 278°
2026-05-07 20:55 29.07914 -89.63583 33994 ft 407 kts 278°
2026-05-07 20:56 29.09218 -89.69882 33993 ft 407 kts 278°
2026-05-07 20:56 29.10518 -89.76184 33996 ft 407 kts 278°
2026-05-07 20:57 29.11817 -89.82493 33995 ft 408 kts 278°
2026-05-07 20:57 29.13114 -89.88809 33995 ft 408 kts 278°
2026-05-07 20:58 29.14411 -89.95138 33989 ft 409 kts 278°
2026-05-07 20:58 29.15705 -90.01468 33994 ft 409 kts 278°
2026-05-07 20:59 29.16990 -90.07767 33996 ft 409 kts 278°
2026-05-07 20:59 29.18907 -90.13935 34001 ft 416 kts 287°
2026-05-07 21:00 29.21210 -90.20018 34007 ft 417 kts 287°
2026-05-07 21:00 29.23527 -90.26087 34010 ft 416 kts 287°
2026-05-07 21:01 29.25846 -90.32165 33999 ft 416 kts 287°
2026-05-07 21:01 29.28157 -90.38232 34008 ft 415 kts 287°
2026-05-07 21:02 29.30461 -90.44289 34002 ft 414 kts 287°
2026-05-07 21:02 29.32755 -90.50329 33996 ft 413 kts 287°
2026-05-07 21:03 29.35041 -90.56359 34008 ft 412 kts 287°
2026-05-07 21:03 29.37321 -90.62384 34010 ft 411 kts 287°
2026-05-07 21:04 29.39592 -90.68393 34013 ft 411 kts 287°
2026-05-07 21:04 29.41860 -90.74405 34010 ft 410 kts 287°
2026-05-07 21:05 29.44119 -90.80403 34010 ft 409 kts 287°
2026-05-07 21:05 29.46373 -90.86396 34010 ft 409 kts 287°
2026-05-07 21:06 29.48624 -90.92394 34008 ft 409 kts 287°
2026-05-07 21:06 29.50876 -90.98402 34011 ft 409 kts 287°
2026-05-07 21:07 29.53123 -91.04406 34014 ft 409 kts 287°
2026-05-07 21:07 29.55364 -91.10407 34019 ft 409 kts 287°
2026-05-07 21:08 29.57589 -91.16373 34011 ft 409 kts 287°
2026-05-07 21:08 29.59842 -91.22424 34010 ft 409 kts 287°
2026-05-07 21:09 29.62057 -91.28383 34009 ft 409 kts 287°
2026-05-07 21:09 29.64287 -91.34391 34009 ft 409 kts 287°
2026-05-07 21:10 29.66513 -91.40400 34011 ft 408 kts 287°
2026-05-07 21:10 29.68734 -91.46404 34009 ft 408 kts 287°
2026-05-07 21:11 29.70952 -91.52409 34016 ft 408 kts 287°
2026-05-07 21:11 29.74270 -91.61415 34018 ft 407 kts 287°
2026-05-07 21:12 29.76476 -91.67414 34021 ft 407 kts 287°
2026-05-07 21:12 29.78678 -91.73411 34021 ft 407 kts 287°
2026-05-07 21:13 29.80877 -91.79412 34018 ft 407 kts 287°
2026-05-07 21:13 29.83072 -91.85409 34012 ft 406 kts 287°
2026-05-07 21:14 29.85265 -91.91413 34023 ft 406 kts 287°
2026-05-07 21:14 29.87453 -91.97412 34008 ft 406 kts 287°
2026-05-07 21:15 29.89634 -92.03405 34003 ft 406 kts 287°
2026-05-07 21:15 29.91814 -92.09401 34002 ft 405 kts 287°
2026-05-07 21:16 29.93989 -92.15395 34002 ft 405 kts 287°
2026-05-07 21:16 29.96162 -92.21396 34001 ft 405 kts 287°
2026-05-07 21:17 29.98329 -92.27387 34001 ft 405 kts 286°
2026-05-07 21:17 30.00494 -92.33385 34008 ft 405 kts 286°
2026-05-07 21:18 30.02655 -92.39381 34023 ft 405 kts 286°
2026-05-07 21:18 30.04814 -92.45384 34041 ft 405 kts 286°
2026-05-07 21:19 30.06971 -92.51388 34047 ft 405 kts 286°
2026-05-07 21:19 30.09125 -92.57395 34051 ft 405 kts 286°
2026-05-07 21:20 30.11261 -92.63364 34039 ft 405 kts 286°
2026-05-07 21:20 30.13422 -92.69410 34040 ft 404 kts 286°
2026-05-07 21:21 30.15564 -92.75414 34043 ft 404 kts 286°
2026-05-07 21:21 30.17688 -92.81378 34043 ft 404 kts 286°
2026-05-07 21:22 30.19822 -92.87380 34038 ft 404 kts 286°
2026-05-07 21:22 30.21953 -92.93387 34037 ft 403 kts 286°
2026-05-07 21:23 30.24091 -92.99421 34034 ft 403 kts 285°
2026-05-07 21:23 30.26197 -93.05376 34029 ft 403 kts 285°
2026-05-07 21:24 30.28314 -93.11370 34028 ft 402 kts 285°
2026-05-07 21:24 30.30427 -93.17366 34029 ft 402 kts 285°
2026-05-07 21:25 30.32533 -93.23351 34038 ft 401 kts 285°
2026-05-07 21:25 30.34635 -93.29335 34034 ft 401 kts 285°
2026-05-07 21:26 30.36733 -93.35317 34034 ft 401 kts 285°
2026-05-07 21:26 30.38822 -93.41285 34035 ft 400 kts 285°
2026-05-07 21:27 30.40910 -93.47260 34035 ft 399 kts 285°
2026-05-07 21:27 30.42989 -93.53221 34034 ft 399 kts 285°
2026-05-07 21:28 30.45062 -93.59173 34031 ft 398 kts 285°
2026-05-07 21:28 30.47131 -93.65126 34026 ft 398 kts 285°
2026-05-07 21:29 30.49197 -93.71078 34028 ft 397 kts 285°
2026-05-07 21:29 30.51254 -93.77017 34029 ft 397 kts 285°
2026-05-07 21:30 30.53309 -93.82959 34028 ft 397 kts 285°
2026-05-07 21:30 30.55360 -93.88900 34030 ft 397 kts 285°
2026-05-07 21:31 30.57410 -93.94847 34033 ft 396 kts 285°
2026-05-07 21:31 30.59452 -94.00783 34035 ft 396 kts 285°
2026-05-07 21:32 30.61490 -94.06716 34038 ft 396 kts 285°
2026-05-07 21:32 30.63522 -94.12645 34036 ft 395 kts 285°
2026-05-07 21:33 30.65540 -94.18541 34039 ft 395 kts 285°
2026-05-07 21:33 30.67565 -94.24469 34040 ft 395 kts 285°
2026-05-07 21:34 30.69588 -94.30401 34039 ft 395 kts 285°
2026-05-07 21:34 30.71605 -94.36324 34043 ft 394 kts 284°
2026-05-07 21:35 30.73633 -94.42289 34046 ft 394 kts 284°
2026-05-07 21:35 30.75630 -94.48177 34042 ft 394 kts 284°
2026-05-07 21:36 30.77638 -94.54106 34044 ft 394 kts 284°
2026-05-07 21:36 30.79643 -94.60039 34049 ft 394 kts 284°
2026-05-07 21:37 30.81646 -94.65974 34049 ft 394 kts 284°
2026-05-07 21:37 30.83644 -94.71904 34052 ft 394 kts 284°
2026-05-07 21:38 30.85640 -94.77837 34051 ft 393 kts 284°
2026-05-07 21:38 30.87630 -94.83766 34052 ft 393 kts 284°
2026-05-07 21:39 30.89614 -94.89689 34052 ft 393 kts 284°
2026-05-07 21:39 30.91582 -94.95571 34053 ft 392 kts 284°
2026-05-07 21:40 30.93558 -95.01489 34059 ft 392 kts 284°
2026-05-07 21:40 30.95531 -95.07409 34055 ft 392 kts 284°
2026-05-07 21:41 30.97503 -95.13337 34056 ft 392 kts 284°
2026-05-07 21:41 30.99140 -95.18264 34052 ft 392 kts 284°
2026-05-07 21:42 31.01107 -95.24194 34056 ft 392 kts 284°
2026-05-07 21:42 31.03071 -95.30128 34063 ft 392 kts 284°
2026-05-07 21:43 31.05032 -95.36062 34063 ft 393 kts 284°
2026-05-07 21:43 31.06989 -95.41996 34068 ft 392 kts 284°
2026-05-07 21:44 31.08950 -95.47952 34066 ft 393 kts 284°
2026-05-07 21:44 31.10904 -95.53896 34069 ft 393 kts 284°
2026-05-07 21:45 31.12857 -95.59849 34068 ft 393 kts 284°
2026-05-07 21:45 31.14808 -95.65806 34073 ft 393 kts 284°
2026-05-07 21:46 31.16752 -95.71755 34065 ft 393 kts 284°
2026-05-07 21:46 31.18696 -95.77711 34065 ft 393 kts 284°
2026-05-07 21:47 31.20640 -95.83681 34074 ft 393 kts 284°
2026-05-07 21:47 31.22581 -95.89652 34070 ft 393 kts 284°
2026-05-07 21:48 31.24518 -95.95622 34071 ft 393 kts 284°
2026-05-07 21:48 31.26451 -96.01589 34073 ft 393 kts 284°
2026-05-07 21:49 31.28385 -96.07569 34075 ft 393 kts 284°
2026-05-07 21:49 31.30314 -96.13548 34070 ft 393 kts 284°
2026-05-07 21:50 31.32243 -96.19537 34070 ft 393 kts 284°
2026-05-07 21:50 31.34166 -96.25518 34071 ft 393 kts 284°
2026-05-07 21:51 31.36091 -96.31515 34075 ft 393 kts 284°
2026-05-07 21:51 31.38009 -96.37505 34086 ft 393 kts 284°
2026-05-07 21:52 31.39927 -96.43501 34078 ft 393 kts 284°
2026-05-07 21:52 31.41831 -96.49467 34083 ft 394 kts 284°
2026-05-07 21:53 31.43747 -96.55481 34085 ft 394 kts 284°
2026-05-07 21:53 31.45660 -96.61495 34087 ft 394 kts 284°
2026-05-07 21:54 31.47574 -96.67520 34081 ft 395 kts 284°
2026-05-07 21:54 31.49485 -96.73550 34082 ft 395 kts 284°
2026-05-07 21:55 31.51393 -96.79580 34077 ft 395 kts 284°
2026-05-07 21:55 31.53297 -96.85606 34074 ft 395 kts 284°
2026-05-07 21:56 31.55202 -96.91651 34084 ft 395 kts 284°
2026-05-07 21:56 31.57101 -96.97686 34077 ft 395 kts 284°
2026-05-07 21:57 31.59001 -97.03733 34081 ft 395 kts 284°
2026-05-07 21:57 31.60898 -97.09787 34085 ft 396 kts 284°
2026-05-07 21:58 31.62799 -97.15862 34082 ft 396 kts 284°
2026-05-07 21:58 31.64699 -97.21944 34083 ft 397 kts 284°
2026-05-07 21:59 31.66855 -97.27939 34078 ft 409 kts 296°
2026-05-07 21:59 31.69955 -97.33553 34084 ft 410 kts 294°
2026-05-07 22:00 31.73014 -97.39171 34082 ft 412 kts 294°
2026-05-07 22:00 31.76104 -97.44840 34081 ft 413 kts 294°
2026-05-07 22:01 31.79200 -97.50527 34080 ft 413 kts 294°
2026-05-07 22:01 31.82298 -97.56226 34065 ft 414 kts 294°
2026-05-07 22:02 31.85395 -97.61931 34063 ft 414 kts 294°
2026-05-07 22:02 31.88492 -97.67644 34058 ft 414 kts 294°
2026-05-07 22:03 31.91584 -97.73359 34056 ft 414 kts 294°
2026-05-07 22:03 31.94676 -97.79080 34052 ft 414 kts 293°
2026-05-07 22:04 31.97763 -97.84802 34046 ft 414 kts 293°
2026-05-07 22:04 32.00846 -97.90524 34057 ft 414 kts 293°
2026-05-07 22:05 32.03925 -97.96249 34068 ft 413 kts 293°
2026-05-07 22:05 32.06997 -98.01968 34086 ft 413 kts 292°
2026-05-07 22:06 32.10068 -98.07694 34094 ft 413 kts 292°
2026-05-07 22:06 32.13112 -98.13377 34104 ft 412 kts 292°
2026-05-07 22:07 32.16169 -98.19096 34099 ft 412 kts 292°
2026-05-07 22:07 32.19219 -98.24807 34101 ft 411 kts 291°
2026-05-07 22:08 32.22259 -98.30512 34099 ft 410 kts 291°
2026-05-07 22:08 32.25288 -98.36202 34095 ft 409 kts 291°
2026-05-07 22:09 32.28303 -98.41875 34080 ft 407 kts 291°
2026-05-07 22:09 32.31309 -98.47539 34069 ft 406 kts 291°
2026-05-07 22:10 32.34302 -98.53186 34064 ft 405 kts 291°
2026-05-07 22:10 32.37285 -98.58824 34068 ft 404 kts 291°
2026-05-07 22:11 32.40264 -98.64463 34077 ft 404 kts 291°
2026-05-07 22:11 32.43234 -98.70094 34084 ft 403 kts 290°
2026-05-07 22:12 32.46201 -98.75727 34083 ft 403 kts 290°
2026-05-07 22:12 32.49164 -98.81360 34081 ft 403 kts 290°
2026-05-07 22:13 32.52129 -98.87006 34076 ft 404 kts 290°
2026-05-07 22:13 32.55092 -98.92659 34070 ft 405 kts 290°
2026-05-07 22:14 32.58061 -98.98330 34061 ft 405 kts 290°
2026-05-07 22:14 32.61033 -99.04015 34058 ft 406 kts 290°
2026-05-07 22:15 32.64005 -99.09710 34055 ft 406 kts 290°
2026-05-07 22:15 32.66955 -99.15371 34055 ft 406 kts 290°
2026-05-07 22:16 32.69922 -99.21073 34053 ft 406 kts 290°
2026-05-07 22:16 32.72888 -99.26780 34049 ft 406 kts 290°
2026-05-07 22:17 32.75844 -99.32478 34034 ft 405 kts 290°
2026-05-07 22:17 32.78794 -99.38172 34036 ft 404 kts 290°
2026-05-07 22:18 32.83206 -99.46707 34029 ft 403 kts 290°
2026-05-07 22:19 32.86140 -99.52394 34030 ft 403 kts 290°
2026-05-07 22:19 32.89072 -99.58084 34023 ft 403 kts 290°
2026-05-07 22:20 32.91998 -99.63773 34022 ft 403 kts 290°
2026-05-07 22:20 32.94920 -99.69464 34017 ft 403 kts 290°
2026-05-07 22:21 32.97841 -99.75159 34018 ft 403 kts 290°
2026-05-07 22:21 33.00757 -99.80854 34017 ft 402 kts 289°
2026-05-07 22:22 33.03668 -99.86549 34013 ft 402 kts 289°
2026-05-07 22:22 33.06577 -99.92248 34008 ft 402 kts 289°
2026-05-07 22:23 33.09480 -99.97945 34009 ft 402 kts 289°
2026-05-07 22:23 33.12381 -100.03646 34001 ft 402 kts 289°
2026-05-07 22:24 33.15281 -100.09352 34001 ft 402 kts 289°
2026-05-07 22:24 33.18172 -100.15053 34002 ft 401 kts 289°
2026-05-07 22:25 33.21059 -100.20753 33997 ft 401 kts 289°
2026-05-07 22:25 33.23941 -100.26453 33996 ft 401 kts 289°
2026-05-07 22:26 33.26818 -100.32150 33998 ft 400 kts 289°
2026-05-07 22:26 33.29690 -100.37848 33996 ft 400 kts 289°
2026-05-07 22:27 33.32556 -100.43541 33996 ft 400 kts 289°
2026-05-07 22:27 33.35401 -100.49202 33997 ft 399 kts 289°
2026-05-07 22:28 33.38257 -100.54895 34002 ft 399 kts 289°
2026-05-07 22:28 33.41105 -100.60580 33994 ft 398 kts 289°
2026-05-07 22:29 33.43953 -100.66275 33992 ft 398 kts 289°
2026-05-07 22:29 33.46796 -100.71967 33998 ft 398 kts 289°
2026-05-07 22:30 33.49633 -100.77658 34001 ft 398 kts 289°
2026-05-07 22:30 33.51989 -100.82389 33997 ft 397 kts 289°
2026-05-07 22:31 33.54837 -100.88117 33999 ft 397 kts 289°
2026-05-07 22:31 33.57658 -100.93799 34000 ft 397 kts 289°
2026-05-07 22:32 33.60462 -100.99458 33998 ft 397 kts 289°
2026-05-07 22:32 33.63280 -101.05152 34000 ft 397 kts 289°
2026-05-07 22:33 33.66093 -101.10847 34000 ft 397 kts 289°
2026-05-07 22:33 33.68909 -101.16555 33999 ft 397 kts 289°
2026-05-07 22:34 33.71718 -101.22259 33991 ft 397 kts 289°
2026-05-07 22:34 33.74525 -101.27967 33993 ft 397 kts 289°
2026-05-07 22:35 33.77336 -101.33695 33947 ft 400 kts 290°
2026-05-07 22:35 33.80198 -101.39534 33976 ft 408 kts 290°
2026-05-07 22:36 33.83079 -101.45422 33985 ft 408 kts 290°
2026-05-07 22:36 33.85956 -101.51310 33995 ft 408 kts 290°
2026-05-07 22:37 33.88829 -101.57200 34000 ft 408 kts 290°
2026-05-07 22:37 33.91697 -101.63091 34002 ft 408 kts 290°
2026-05-07 22:38 33.94571 -101.69003 34015 ft 408 kts 290°
2026-05-07 22:38 33.97438 -101.74911 34019 ft 409 kts 290°
2026-05-07 22:39 34.00303 -101.80823 34018 ft 409 kts 290°
2026-05-07 22:39 34.03167 -101.86745 34022 ft 409 kts 290°
2026-05-07 22:40 34.06029 -101.92672 34014 ft 409 kts 290°
2026-05-07 22:40 34.08890 -101.98607 34006 ft 409 kts 290°
2026-05-07 22:41 34.11750 -102.04549 34000 ft 409 kts 290°
2026-05-07 22:41 34.14607 -102.10496 33994 ft 410 kts 290°
2026-05-07 22:42 34.17462 -102.16447 33982 ft 410 kts 291°
2026-05-07 22:42 34.20316 -102.22409 33986 ft 410 kts 291°
2026-05-07 22:43 34.23171 -102.28378 33992 ft 410 kts 290°
2026-05-07 22:43 34.26024 -102.34354 33991 ft 410 kts 291°
2026-05-07 22:44 34.28877 -102.40338 33994 ft 411 kts 291°
2026-05-07 22:44 34.31727 -102.46327 33994 ft 411 kts 291°
2026-05-07 22:45 34.34574 -102.52319 33997 ft 411 kts 291°
2026-05-07 22:45 34.37424 -102.58328 34001 ft 411 kts 291°
2026-05-07 22:46 34.40251 -102.64298 34004 ft 411 kts 291°
2026-05-07 22:46 34.43096 -102.70316 34017 ft 412 kts 291°
2026-05-07 22:47 34.45939 -102.76339 34027 ft 412 kts 291°
2026-05-07 22:47 34.48780 -102.82369 34037 ft 412 kts 291°
2026-05-07 22:47 34.50420 -102.85261 34043 ft 423 kts 301°
2026-05-07 22:48 34.52321 -102.87984 34044 ft 424 kts 300°
2026-05-07 22:48 34.56104 -102.93475 34052 ft 424 kts 301°
2026-05-07 22:49 34.59891 -102.98955 34049 ft 424 kts 301°
2026-05-07 22:49 34.63671 -103.04431 34044 ft 423 kts 301°
2026-05-07 22:50 34.67456 -103.09923 34034 ft 424 kts 301°
2026-05-07 22:50 34.71237 -103.15416 34017 ft 424 kts 301°
2026-05-07 22:51 34.75008 -103.20905 33996 ft 424 kts 301°
2026-05-07 22:51 34.78790 -103.26417 33988 ft 424 kts 301°
2026-05-07 22:52 34.82565 -103.31928 33976 ft 424 kts 301°
2026-05-07 22:52 34.86316 -103.37414 33982 ft 424 kts 302°
2026-05-07 22:53 34.90114 -103.42977 33974 ft 425 kts 302°
2026-05-07 22:53 34.93868 -103.48482 33978 ft 425 kts 302°
2026-05-07 22:54 34.97668 -103.54066 33996 ft 426 kts 302°
2026-05-07 22:54 35.01425 -103.59595 34006 ft 426 kts 302°
2026-05-07 22:55 35.05211 -103.65174 34016 ft 427 kts 303°
2026-05-07 22:55 35.08996 -103.70762 34018 ft 428 kts 303°
2026-05-07 22:56 35.12790 -103.76371 34009 ft 428 kts 303°
2026-05-07 22:56 35.16588 -103.81996 34000 ft 429 kts 303°
2026-05-07 22:57 35.20389 -103.87634 33992 ft 431 kts 304°
2026-05-07 22:57 35.24203 -103.93302 33967 ft 432 kts 304°
2026-05-07 22:58 35.28021 -103.98985 33959 ft 433 kts 304°
2026-05-07 22:58 35.31850 -104.04693 33945 ft 434 kts 305°
2026-05-07 22:59 35.35688 -104.10423 33947 ft 435 kts 305°
2026-05-07 22:59 35.39529 -104.16168 33951 ft 436 kts 306°
2026-05-07 23:00 35.43378 -104.21934 33954 ft 437 kts 306°
2026-05-07 23:00 35.47230 -104.27715 33954 ft 438 kts 306°
2026-05-07 23:01 35.51088 -104.33514 33954 ft 439 kts 307°
2026-05-07 23:01 35.54927 -104.39296 33962 ft 440 kts 307°
2026-05-07 23:02 35.58791 -104.45125 33921 ft 440 kts 308°
2026-05-07 23:02 35.62677 -104.50995 33965 ft 440 kts 307°
2026-05-07 23:03 35.66514 -104.56801 33974 ft 441 kts 307°
2026-05-07 23:03 35.70377 -104.62657 33974 ft 441 kts 308°
2026-05-07 23:04 35.74236 -104.68517 33976 ft 441 kts 308°
2026-05-07 23:04 35.78094 -104.74385 33981 ft 441 kts 308°
2026-05-07 23:05 35.81944 -104.80253 33990 ft 440 kts 308°
2026-05-07 23:05 35.85786 -104.86116 34001 ft 439 kts 308°
2026-05-07 23:06 35.89617 -104.91974 34000 ft 439 kts 308°
2026-05-07 23:06 35.93444 -104.97836 34001 ft 438 kts 308°
2026-05-07 23:07 35.97264 -105.03696 33991 ft 438 kts 308°
2026-05-07 23:07 36.01082 -105.09563 33989 ft 438 kts 308°
2026-05-07 23:08 36.04898 -105.15437 33998 ft 438 kts 308°
2026-05-07 23:08 36.08707 -105.21312 34024 ft 438 kts 308°
2026-05-07 23:09 36.12515 -105.27194 34054 ft 438 kts 308°
2026-05-07 23:09 36.16326 -105.33092 34088 ft 439 kts 308°
2026-05-07 23:10 36.20133 -105.38993 34101 ft 439 kts 308°
2026-05-07 23:10 36.23940 -105.44904 34117 ft 439 kts 308°
2026-05-07 23:11 36.27736 -105.50808 34111 ft 438 kts 308°
2026-05-07 23:11 36.31525 -105.56713 34099 ft 437 kts 308°
2026-05-07 23:12 36.35304 -105.62611 34078 ft 436 kts 309°
2026-05-07 23:12 36.39071 -105.68501 34049 ft 435 kts 309°
2026-05-07 23:13 36.42823 -105.74378 34020 ft 434 kts 309°
2026-05-07 23:13 36.46564 -105.80247 34014 ft 433 kts 309°
2026-05-07 23:14 36.50275 -105.86076 34012 ft 432 kts 309°
2026-05-07 23:14 36.53997 -105.91934 34013 ft 432 kts 309°
2026-05-07 23:15 36.57718 -105.97799 34019 ft 432 kts 309°
2026-05-07 23:15 36.61432 -106.03664 34037 ft 431 kts 309°
2026-05-07 23:16 36.65140 -106.09533 34041 ft 431 kts 309°
2026-05-07 23:16 36.68257 -106.15919 34052 ft 433 kts 298°
2026-05-07 23:16 36.69255 -106.19469 34051 ft 437 kts 285°
2026-05-07 23:17 36.69843 -106.23185 34063 ft 437 kts 286°
2026-05-07 23:17 36.71904 -106.30267 34065 ft 435 kts 292°
2026-05-07 23:18 36.73645 -106.36206 34074 ft 435 kts 292°
2026-05-07 23:18 36.75712 -106.43294 34059 ft 435 kts 292°
2026-05-07 23:19 36.77774 -106.50385 34071 ft 435 kts 292°
2026-05-07 23:19 36.79832 -106.57478 34072 ft 435 kts 292°
2026-05-07 23:20 36.81883 -106.64570 34074 ft 434 kts 292°
2026-05-07 23:20 36.83928 -106.71656 34074 ft 434 kts 292°
2026-05-07 23:21 36.85957 -106.78703 34075 ft 434 kts 292°
2026-05-07 23:21 36.87994 -106.85801 34066 ft 434 kts 292°
2026-05-07 23:22 36.90028 -106.92902 34068 ft 434 kts 292°
2026-05-07 23:22 36.92056 -107.00004 34062 ft 434 kts 292°
2026-05-07 23:23 36.94079 -107.07108 34068 ft 434 kts 292°
2026-05-07 23:23 36.96099 -107.14219 34065 ft 434 kts 292°
2026-05-07 23:24 36.98117 -107.21339 34066 ft 434 kts 292°
2026-05-07 23:24 37.00127 -107.28451 34062 ft 434 kts 292°
2026-05-07 23:25 37.02136 -107.35580 34049 ft 434 kts 292°
2026-05-07 23:25 37.04139 -107.42706 34066 ft 434 kts 292°
2026-05-07 23:26 37.06141 -107.49848 34074 ft 435 kts 292°
2026-05-07 23:26 37.08140 -107.56997 34093 ft 435 kts 292°
2026-05-07 23:27 37.11130 -107.67726 34112 ft 435 kts 292°
2026-05-07 23:27 37.13117 -107.74878 34109 ft 435 kts 292°